#
# The Tor Project
#
# URL: https://metrics.torproject.org/networksize.csv?start=2017-06-01&end=2017-10-23
#
date,relays,bridges
2017-06-01,7126,3588
2017-06-02,7126,3583
2017-06-03,7147,3561
2017-06-04,7177,3549
2017-06-05,7190,3548
2017-06-06,7199,3541
2017-06-07,7199,3526
2017-06-08,7202,3512
2017-06-09,7177,3509
2017-06-10,7190,3504
2017-06-11,7178,3502
2017-06-12,7172,3497
2017-06-13,7186,3484
2017-06-14,7197,3470
2017-06-15,7180,3465
2017-06-16,7164,3463
2017-06-17,7186,3449
2017-06-18,7184,3414
2017-06-19,7169,3213
2017-06-20,7175,3154
2017-06-21,7183,3155
2017-06-22,7171,3144
2017-06-23,7182,3139
2017-06-24,7191,3152
2017-06-25,7178,3140
2017-06-26,7127,3128
2017-06-27,7122,3117
2017-06-28,7074,3097
2017-06-29,7048,3106
2017-06-30,7057,3100
2017-07-01,7152,3102
2017-07-02,7161,3092
2017-07-03,7116,3078
2017-07-04,7138,3065
2017-07-05,7140,3048
2017-07-06,7137,3027
2017-07-07,7094,3020
2017-07-08,7056,3011
2017-07-09,7049,3008
2017-07-10,7046,2982
2017-07-11,7057,2980
2017-07-12,7070,2977
2017-07-13,7025,2971
2017-07-14,7022,2960
2017-07-15,7007,2954
2017-07-16,6992,2956
2017-07-17,6966,2955
2017-07-18,6968,2947
2017-07-19,6969,2935
2017-07-20,6921,2924
2017-07-21,6922,2913
2017-07-22,6915,2912
2017-07-23,6909,2906
2017-07-24,6910,2895
2017-07-25,6932,2888
2017-07-26,6924,2870
2017-07-27,6918,2860
2017-07-28,6902,2856
2017-07-29,6884,2835
2017-07-30,6866,2826
2017-07-31,6839,2815
2017-08-01,6908,2809
2017-08-02,6910,2807
2017-08-03,6907,2795
2017-08-04,6942,2788
2017-08-05,6958,2786
2017-08-06,6955,2787
2017-08-07,6913,2787
2017-08-08,6929,2776
2017-08-09,6955,2738
2017-08-10,6958,2760
2017-08-11,6949,2755
2017-08-12,6929,2748
2017-08-13,6926,2755
2017-08-14,6909,2209
2017-08-15,6899,1574
2017-08-16,6882,2725
2017-08-17,6840,2725
2017-08-18,6835,2730
2017-08-19,6839,2725
2017-08-20,6843,2737
2017-08-21,6812,2514
2017-08-22,6840,2483
2017-08-23,6826,2480
2017-08-24,6884,2476
2017-08-25,6884,2472
2017-08-26,6870,2479
2017-08-27,6845,2476
2017-08-28,6808,2471
2017-08-29,6811,2470
2017-08-30,6810,2475
2017-08-31,6832,2473
2017-09-01,6925,2463
2017-09-02,6961,2743
2017-09-03,6936,3593
2017-09-04,6929,3632
2017-09-05,6931,3577
2017-09-06,6920,3574
2017-09-07,6918,3545
2017-09-08,6884,3514
2017-09-09,6908,3604
2017-09-10,6896,3657
2017-09-11,6850,3621
2017-09-12,6854,3547
2017-09-13,6833,3478
2017-09-14,6821,3660
2017-09-15,6868,2247
2017-09-16,6852,3504
2017-09-17,6860,3302
2017-09-18,6829,3274
2017-09-19,6820,3085
2017-09-20,6786,2516
2017-09-21,6775,2481
2017-09-22,6758,2506
2017-09-23,6754,2518
2017-09-24,6752,2489
2017-09-25,6717,2439
2017-09-26,6700,2430
2017-09-27,6689,2420
2017-09-28,6668,2388
2017-09-29,6611,2378
2017-09-30,6582,2384
2017-10-01,6718,2388
2017-10-02,6690,2382
2017-10-03,6698,2381
2017-10-04,6694,2381
2017-10-05,6690,2373
2017-10-06,6671,2370
2017-10-07,6666,2371
2017-10-08,6672,2370
2017-10-09,6659,2367
2017-10-10,6634,2368
2017-10-11,6638,2368
2017-10-12,6622,2386
2017-10-13,6620,2425
2017-10-14,6622,2423
2017-10-15,6633,2425
2017-10-16,6612,2426
2017-10-17,6629,2432
2017-10-18,6633,2364
2017-10-19,6624,2356
2017-10-20,6607,2354
2017-10-21,6599,2349
2017-10-22,6603,2334
2017-10-23,6570,2333
